Home > Weather > Edinburgh > Past weeks

Flag for United Kingdom Past Weather in Edinburgh, Scotland, United Kingdom — Yesterday and Last 2 Weeks

Now
63 °F

Scattered clouds.


Feels Like: 63 °F
Forecast: 51 / 65 °F
Wind: 8 mph from West

Location: Edinburgh Airport

Current Time: Jul 28, 2016 at 11:34:19 AM

Latest Report: Jul 28, 2016 at 11:20 AM


Visibility: N/A

Pressure: 29.83 "Hg

Humidity: 73%

Dew Point: 54 °F

Location of EdinburghLocation

Past Weather in Edinburgh — Graph

°F

Edinburgh Temperature Yesterday

Maximum temperature yesterday: 64 °F (at 1:20 PM)
Minimum temperature yesterday: 50 °F (at 6:50 AM)
Average temperature yesterday: 58 °F

High & Low Weather Summary for the Past Weeks

 TemperatureHumidityPressure
High75 °F (Jul 18, 3:20 PM)100% (Jul 19, 3:20 AM)30.21 "Hg (Jul 19, 3:20 AM)
Low48 °F (Jul 14, 4:20 AM)46% (Jul 14, 3:50 PM)29.65 "Hg (Jul 20, 11:20 AM)
Average60 °F82%30.00 "Hg
* Reported Jul 13 10:20 AM — Jul 28 10:20 AM, Edinburgh, Weather by CustomWeather, © 2016

Note: Actual official high and low records may vary slightly from our data, if they occured in-between our weather recording intervals... More about our weather records

Advertising

Edinburgh Weather History for the Previous 24 Hours

Scroll right to see more
 ConditionsComfort  
Time TempWeatherWind HumidityBarometerVisibility
10:20 AM
Thu, Jul 28
61 °FPartly sunny.5 mph72%29.86 "HgN/A
9:50 AM59 °FPassing clouds.6 mph72%29.86 "HgN/A
9:20 AM59 °FOvercast.5 mph72%29.86 "HgN/A
8:50 AM57 °FMore clouds than sun.6 mph77%29.86 "HgN/A
8:20 AM57 °FPartly sunny.8 mph77%29.86 "HgN/A
7:50 AM55 °FOvercast.6 mph82%29.86 "HgN/A
7:20 AM54 °FOvercast.5 mph88%29.86 "HgN/A
6:50 AM52 °FOvercast.5 mph94%29.89 "HgN/A
6:20 AM50 °FOvercast.3 mph94%29.89 "HgN/A
5:50 AM50 °FOvercast.6 mph94%29.89 "HgN/A
5:20 AM48 °FPassing clouds.7 mph94%29.89 "HgN/A
4:50 AM50 °FCool.7 mph88%29.89 "HgN/A
4:20 AM50 °FCool.5 mph94%29.89 "HgN/A
3:50 AM52 °FPassing clouds.6 mph88%29.89 "HgN/A
3:20 AM54 °FOvercast.8 mph88%29.92 "HgN/A
2:50 AM54 °FOvercast.8 mph88%29.92 "HgN/A
2:20 AM54 °FOvercast.8 mph88%29.92 "HgN/A
1:50 AM54 °FMostly cloudy.5 mph88%29.92 "HgN/A
1:20 AM54 °FOvercast.6 mph82%29.92 "HgN/A
12:50 AM54 °FPassing clouds.7 mph82%29.92 "HgN/A
12:20 AM54 °FPassing clouds.6 mph82%29.92 "HgN/A
11:50 PM
Wed, Jul 27
54 °FPassing clouds.12 mph82%29.95 "HgN/A
11:20 PM55 °FPassing clouds.8 mph77%29.95 "HgN/A
10:50 PM55 °FPassing clouds.10 mph77%29.95 "HgN/A
10:20 PM55 °FCool.10 mph82%29.95 "HgN/A
9:50 PM55 °FPassing clouds.8 mph82%29.95 "HgN/A
9:20 PM57 °FPassing clouds.10 mph77%29.95 "HgN/A
8:50 PM57 °FPassing clouds.12 mph77%29.95 "HgN/A
8:20 PM59 °FPassing clouds.16 mph72%29.95 "HgN/A
7:50 PM59 °FPassing clouds.15 mph77%29.92 "HgN/A
7:20 PM59 °FScattered clouds.15 mph77%29.92 "HgN/A
6:50 PM61 °FPartly sunny.13 mph72%29.92 "HgN/A
6:20 PM61 °FPartly sunny.14 mph72%29.92 "HgN/A
5:50 PM63 °FOvercast.16 mph68%29.92 "HgN/A
5:20 PM63 °FOvercast.17 mph73%29.92 "HgN/A
4:50 PM63 °FOvercast.16 mph68%29.92 "HgN/A
4:20 PM63 °FMore clouds than sun.15 mph68%29.92 "HgN/A
3:50 PM63 °FPartly sunny.15 mph68%29.92 "HgN/A
3:20 PM64 °FPartly sunny.14 mph68%29.92 "HgN/A
2:50 PM64 °FScattered clouds.17 mph64%29.92 "HgN/A
2:20 PM64 °FPartly sunny.13 mph64%29.92 "HgN/A
1:50 PM63 °FOvercast.12 mph64%29.92 "HgN/A
1:20 PM64 °FScattered clouds.13 mph64%29.92 "HgN/A
12:50 PM63 °FPartly sunny.14 mph68%29.92 "HgN/A
12:20 PM63 °FPartly sunny.13 mph68%29.92 "HgN/A
11:50 AM63 °FPartly sunny.12 mph68%29.92 "HgN/A
11:20 AM61 °FScattered clouds.13 mph68%29.92 "HgN/A
Weather by CustomWeather, © 2016

See weather overviewHow to use our weather pages